Location: Unspecified
(0.0000°N, 0.0000°E)
Time: 06:12:17
(UTC+02:00)

PROBA 2 - Pass Details

Date: 02 June 2022
Orbit: 704 x 725 km, 98.2° (Epoch: 04 July)

Event Time Altitude Azimuth Distance (km) Brightness Sun altitude
Rises 07:02:13 0° 142° (SE) 3,139 ? -12.9°
Reaches altitude 10° 07:05:01 10° 126° (SE) 2,215 ? -12.2°
Maximum altitude 07:08:35 21° 78° (ENE) 1,604 ? -11.4°
Drops below altitude 10° 07:12:09 10° 30° (NNE) 2,203 ? -10.6°
Sets 07:14:55 0° 14° (NNE) 3,118 ? -10.0°
